User: anonymous   Login
Location: Columbia
(38.9520°N, 92.3340°W)
Time: 17:56:16
(UTC-06:00)
Language:

Iridium 52 - Orbit

View from above orbital plane
View from above orbital plane
View from above satellite
View from above satellite

Ground track
Ground track

The orbit data is extracted from the following two-line orbital elements,

1 25169U 98010A   18021.15876029  .00000115  00000-0  34143-4 0  9997
2 25169  86.3955 259.2504 0001994  88.2916 271.8508 14.34218857 43028
Epoch (UTC): 21 January 2018 03:48:36
Eccentricity: 0.0001994
inclination: 86.3955°
perigee height: 776 km
apogee height: 779 km
right ascension of ascending node: 259.2504°
argument of perigee: 88.2916°
revolutions per day: 14.34218857
mean anomaly at epoch: 271.8508°
orbit number at epoch: 4302

The dashed part of the orbit path shows where the satellite is in the earth's shadow,  

DLR